FW4111 Weather Reports


Display with metric or nautical units.
time (UTC)temp
F
wind
direction
speed
MPH
gust
MPH
rain 1hr
in
rain 24hr
in
rain mn
in
humidity
%
barometer
mb
20260505074506 57 226 13.0 18.0 0.00 0.00 0.00 96 1010.3
20260505073006 57 221 15.0 19.0 0.00 0.00 0.00 96 1010.3
20260505071504 57 240 16.0 20.0 0.00 0.00 0.00 95 1010.3
20260505070107 57 236 15.0 18.0 0.00 0.00 0.00 95 1010.2
20260505064552 57 248 14.0 20.0 0.00 0.00 0.00 96 1010.2
20260505063042 56 231 16.0 21.0 0.00 0.00 0.00 96 1010.3
20260505061553 56 229 14.0 21.0 0.00 0.00 0.00 96 1010.4
20260505060017 56 204 18.0 28.0 0.00 0.00 0.00 95 1010.5
20260505054509 56 231 22.0 29.0 0.00 0.00 0.00 95 1010.5
20260505053014 56 221 18.0 30.0 0.00 0.00 0.00 95 1010.4
20260505051508 56 243 18.0 27.0 0.00 0.00 0.00 94 1010.6
20260505041533 56 207 12.0 21.0 0.00 0.00 0.00 95 1011.0
20260505040019 56 262 12.0 22.0 0.00 0.00 0.00 95 1011.0
20260505034509 56 28 12.0 20.0 0.00 0.00 0.00 95 1011.0
20260505033012 57 215 15.0 26.0 0.00 0.00 0.00 94 1011.1
20260505031503 57 229 15.0 24.0 0.00 0.00 0.00 94 1011.3
20260505030105 57 240 14.0 26.0 0.00 0.00 0.00 93 1011.2
20260505024545 57 224 14.0 24.0 0.00 0.00 0.00 92 1011.3
20260505023043 58 203 9.0 19.0 0.00 0.00 0.00 90 1011.4
20260505021541 59 243 18.0 27.0 0.00 0.00 0.00 87 1011.4
20260505020027 59 230 15.0 22.0 0.00 0.00 0.00 87 1011.5
20260505014517 59 280 13.0 24.0 0.00 0.00 0.00 87 1011.5
20260505013015 59 210 14.0 22.0 0.00 0.00 0.00 86 1011.4
20260505011512 59 234 19.0 23.0 0.00 0.00 0.00 87 1011.2
20260505010114 59 182 14.0 23.0 0.00 0.00 0.00 88 1011.2
20260505004552 59 237 17.0 23.0 0.00 0.00 0.00 89 1011.0
20260505003045 58 237 13.0 21.0 0.00 0.00 0.00 91 1010.8
20260505001545 57 215 14.0 22.0 0.00 0.00 0.00 91 1010.7
20260505000049 57 226 10.0 20.0 0.00 0.00 0.00 92 1010.5
20260504234522 57 223 11.0 22.0 0.00 0.00 0.00 91 1010.5
20260504233018 57 248 14.0 23.0 0.00 0.00 0.00 90 1010.4
20260504231514 58 205 16.0 27.0 0.00 0.00 0.00 89 1010.3
20260504230116 58 230 16.0 30.0 0.00 0.00 0.00 90 1010.2
20260504224556 59 210 19.0 28.0 0.00 0.00 0.00 88 1010.3
20260504223054 59 230 21.0 29.0 0.00 0.00 0.00 87 1010.2
20260504221551 59 232 24.0 30.0 0.00 0.00 0.00 85 1010.1
20260504220057 59 228 18.0 27.0 0.00 0.00 0.00 86 1010.1
20260504214534 59 241 23.0 30.0 0.00 0.00 0.00 86 1010.3
20260504213029 59 224 17.0 28.0 0.00 0.00 0.00 85 1010.3
20260504211535 59 265 18.0 28.0 0.00 0.00 0.00 86 1010.3
20260504210005 58 188 22.0 30.0 0.00 0.00 0.00 87 1010.2
20260504204503 58 225 17.0 31.0 0.00 0.00 0.00 86 1010.2
20260504203002 59 239 14.0 25.0 0.00 0.00 0.00 85 1010.2
20260504201603 59 229 15.0 27.0 0.00 0.00 0.00 84 1010.2
20260504200100 59 190 12.0 24.0 0.00 0.00 0.00 83 1010.2
20260504194540 60 242 12.0 23.0 0.00 0.00 0.00 81 1010.4
20260504193043 61 219 13.0 24.0 0.00 0.00 0.00 79 1010.5
20260504191532 61 236 10.0 24.0 0.00 0.00 0.00 80 1010.7
20260504190012 61 128 11.0 26.0 0.00 0.00 0.00 82 1011.0
20260504184507 61 250 12.0 20.0 0.00 0.00 0.00 80 1011.0
20260504183003 60 183 13.0 24.0 0.00 0.00 0.00 83 1011.2
20260504181604 60 241 11.0 23.0 0.00 0.00 0.00 81 1011.3
20260504180141 60 241 12.0 22.0 0.00 0.00 0.00 80 1011.4
20260504174540 61 189 11.0 24.0 0.00 0.00 0.00 81 1011.6
20260504173039 61 231 10.0 22.0 0.00 0.00 0.00 78 1011.7
20260504171536 61 249 12.0 23.0 0.00 0.00 0.00 79 1012.1
20260504160107 61 174 11.0 20.0 0.00 0.00 0.00 76 1012.7
20260504140111 59 219 9.0 21.0 0.00 0.00 0.00 75 1013.5
20260504120121 54 239 15.0 20.0 0.00 0.00 0.00 79 1014.7
20260504090115 51 233 20.0 27.0 0.00 0.00 0.00 77 1014.5
20260504081547 52 243 18.0 26.0 0.00 0.00 0.00 73 1014.6